Погода в Сокатове

Россия / Ивановская область     56°35′47″N   40°28′53″E
темп.,
°C
ветер,
м/с
пор.,
м/с
влажн.,
%
обл.,
%
осадки,
мм/ч
давл.,
гПа
погр.,
м
26 февраля, пт
пт2600:00+1зсз4897100 0.0 1012304
03:000зюз1298100 0.0 101129
06:00+1ююв34100100 1.8 100897
09:00+2юз36100100 4.1 1005169
12:00+2зюз512100100 2.5 1002334
15:00+3зюз516100100 4.7 999568
18:00+2з71598100 0.9 998662
21:00+1з71589100 0.9 998805
27 февраля, сб
сб2700:00+1зсз71397100 0.4 996770
03:00+1з81497100 0.6 997887
06:00−6сз71394100 0.6 997539
09:00−10ссз61192100 1.0 1000707
12:00−10с61089100 0.2 1003656
15:00−10с6988100 0.3 1006698
18:00−11с51091100 0.1 1009639
21:00−13с41094100 0.1 1011384
28 февраля, вс
вс2800:00−14ссз389585 0.0 1012200
03:00−16ссз379652 0.0 1015160
06:00−16ссз369628 0.0 1015133
09:00−13ссз369458 0.1 1016317
12:00−10ссз359096 0.0 1016508
15:00−8ссз468898 0.1 1017641
18:00−10с2393100 0.1 101887
21:00−12с239694 0.1 102122
1 марта, пн
пн100:00−13с229792 0.0 102221
03:00−12ссз119693 0.1 102321
06:00−11з129693 0.1 102421
09:00−8зсз239689 0.1 1024101
12:00−4зсз358785 0.0 1025617
15:00−3з478692 0.1 1023744
18:00−3зюз4993100 0.0 1022386
21:00−3зюз51094100 0.2 1020365
2 марта, вт
вт200:00−1зюз61296100 0.2 1017467
03:00+1з51296100 0.3 1014482
06:00+1зсз61297100 0.4 1012541
09:00+1зсз61298100 0.7 1011576
12:000сз510100100 0.3 1011597
15:00+1сз51194100 0.4 1010803
18:00−1зсз4119190 0.2 1010385
21:00−1сз5119694 0.4 1011574